Wind_Speed
27 28 31 33 33 32 29 25 24 25 26 27 29 31 34 35 36 36 36 36 36 36 37 38 39 40 41 42 42 42 42 42 42 42 43 43 43 43 43 43 44 44 44
29 31 32 32 33 31 27 25 26 27 29 32 34 36 38 39 40 39 38 38 38 39 39 40 41 42 43 44 44 45 46 46 45 45 45 45 46 46 47 48 48 49 49
27 29 30 32 32 30 28 27 28 31 33 36 38 41 42 43 43 42 40 39 40 40 41 42 43 44 45 46 46 47 48 49 50 50 51 51 53 54 55 56 56 57 57
25 28 30 32 32 31 30 30 32 34 36 38 41 44 44 43 42 40 39 39 40 41 43 44 46 47 47 49 50 51 53 54 56 58 58 59 60 61 62 62 62 63 63
25 28 31 32 32 30 31 32 34 36 38 40 42 42 40 38 38 38 39 40 42 43 45 47 48 50 52 53 55 57 58 59 61 62 63 64 65 66 66 66 67 67 67
27 30 32 31 29 29 32 34 36 37 39 40 40 39 36 37 38 40 41 43 45 47 49 51 53 55 56 58 60 61 62 63 64 64 65 66 66 66 66 67 68 68 69
28 31 30 28 29 32 35 37 38 40 40 39 38 38 39 40 42 43 44 46 49 52 55 57 58 60 61 63 64 64 64 64 65 65 65 66 66 67 67 68 69 69 70
31 32 31 32 34 36 38 39 40 42 41 40 39 39 40 42 45 47 49 52 54 57 59 61 62 63 64 64 65 65 65 65 66 67 69 70 71 72 73 74 75 75 75
34 34 35 36 38 40 41 42 42 42 42 42 42 42 43 44 45 47 52 56 59 60 61 62 62 62 63 64 64 66 67 70 72 74 77 78 79 80 81 82 83 83 83
37 38 38 40 42 43 43 43 43 42 42 43 45 47 50 52 54 53 53 56 59 60 61 61 61 61 63 65 69 71 74 77 79 82 84 86 88 89 90 91 91 92 92
39 40 42 44 44 44 44 44 43 42 43 45 48 51 54 58 61 62 59 59 60 60 60 61 62 64 66 70 73 77 80 83 86 89 92 95 97 99 100 101 102 102 102
41 42 45 46 44 44 44 43 43 44 46 50 53 56 59 62 64 65 64 64 64 62 63 64 66 69 73 77 81 84 88 92 95 98 101 104 106 108 110 111 112 113 114
42 44 45 44 43 44 44 43 44 47 51 54 57 61 64 66 68 70 70 68 67 67 68 70 73 77 82 86 90 95 99 103 106 110 113 115 117 119 120 121 122 122 122
43 44 43 43 44 44 44 45 47 51 55 58 62 64 67 70 73 74 72 72 72 72 73 75 79 85 91 96 102 107 111 115 119 122 124 124 124 122 120 118 115 112 110
42 42 42 43 43 44 45 48 51 55 59 62 65 67 71 75 75 73 73 75 78 79 79 81 86 93 100 106 112 118 122 126 127 125 120 114 107 101 95 91 88 86 85
41 42 43 43 44 46 48 52 55 58 62 64 67 71 75 76 74 74 76 79 83 86 88 90 96 103 110 117 123 126 126 122 116 110 104 97 89 81 76 73 72 70 70
41 42 43 44 47 49 52 55 59 62 64 67 71 75 75 75 75 77 79 83 89 96 100 101 106 111 117 119 118 113 108 103 99 96 92 87 81 76 72 69 66 65 66
41 43 45 47 50 53 56 59 62 63 66 71 74 75 74 75 76 79 85 91 98 104 109 112 113 115 112 105 98 92 88 86 83 79 75 71 68 66 64 63 62 62 63
42 44 47 51 54 57 59 60 62 66 71 74 74 74 74 76 79 85 92 99 105 110 114 117 114 105 95 85 76 69 65 61 58 55 53 51 51 50 51 52 54 55 56
44 48 51 54 55 56 57 62 67 71 73 73 73 74 76 81 87 93 99 106 111 113 112 108 99 87 73 61 55 50 44 41 39 39 38 37 37 39 41 44 46 47 48
47 51 53 53 54 58 63 67 70 71 71 72 73 76 82 87 93 100 106 110 111 107 100 91 79 65 53 47 43 40 36 31 31 34 30 31 32 33 36 38 39 40 42
50 52 52 55 59 63 67 70 70 70 71 73 77 82 88 94 100 106 110 108 102 93 83 72 59 49 42 39 36 34 32 30 27 29 28 28 30 31 34 36 37 38 38
51 53 56 59 62 66 69 69 69 71 73 78 83 89 94 101 107 109 106 97 85 75 66 57 47 40 35 34 33 30 28 27 28 27 24 24 28 30 34 35 35 33 30
53 55 58 62 65 66 66 68 69 72 78 83 89 95 101 106 108 104 95 82 69 59 52 46 41 36 33 33 32 28 24 22 26 30 30 28 29 30 32 32 29 25 22
54 57 60 63 64 64 66 68 72 77 83 89 95 101 106 107 102 92 79 66 54 45 42 40 37 35 33 33 32 28 24 22 24 30 34 33 32 29 29 29 25 20 16
55 58 61 61 62 64 67 71 77 82 88 94 100 105 105 99 87 74 63 52 42 36 35 34 33 33 34 33 33 32 30 28 28 28 31 31 31 28 25 26 21 15 13
Wind_Direction
276 280 284 291 297 299 299 302 305 303 301 301 301 303 305 305 303 301 299 297 294 292 291 291 290 290 290 290 289 287 286 284 283 282 281 281 281 280 278 276 275 274 273
275 280 286 291 294 294 293 296 300 302 302 301 301 302 302 302 301 299 296 294 291 289 288 288 287 287 286 286 285 285 284 283 282 281 280 279 278 277 276 275 274 272 271
275 280 287 290 292 289 288 293 297 299 300 299 299 299 299 298 298 297 294 291 290 289 288 288 286 285 284 282 282 282 282 282 281 280 279 278 277 276 275 275 274 274 273
274 279 285 288 289 287 287 292 295 296 297 297 297 298 298 296 295 294 292 290 289 289 288 288 287 286 285 284 283 283 283 282 281 280 280 279 278 277 276 275 274 273 273
275 279 283 286 289 288 287 290 293 295 298 299 300 301 299 298 296 295 293 292 290 289 289 288 288 288 287 287 286 285 284 283 281 281 280 279 278 277 276 275 274 273 272
276 282 285 286 287 288 289 291 293 296 299 301 301 300 298 296 295 294 293 293 292 292 292 292 292 292 290 289 287 286 285 283 282 281 280 279 278 278 277 276 274 273 271
277 283 285 283 285 288 291 293 295 298 300 300 297 296 296 295 295 295 296 296 296 296 296 295 294 293 292 290 289 288 286 285 283 282 280 279 278 277 276 274 273 272 270
278 282 283 283 287 290 293 295 298 300 300 297 294 293 294 297 299 300 299 298 298 297 297 296 295 294 293 291 290 288 286 285 283 282 280 279 278 277 276 275 273 271 269
279 281 283 286 289 293 295 297 299 299 297 296 295 294 294 294 294 296 298 299 299 298 298 297 296 294 292 290 288 287 285 284 283 282 281 280 279 278 277 275 274 272 270
278 280 283 286 290 294 296 297 298 297 297 298 298 299 299 299 298 297 296 297 297 297 296 295 293 291 289 288 287 286 285 285 284 284 283 282 281 280 279 277 275 273 272
278 280 283 287 291 294 296 297 297 297 298 299 299 299 300 301 301 301 300 299 299 298 296 294 292 289 288 287 286 286 285 285 285 284 284 283 283 282 281 280 279 277 275
278 280 283 289 292 295 296 298 299 300 300 300 299 300 301 301 301 301 301 299 299 297 295 293 290 289 288 288 288 287 287 286 285 285 284 283 283 282 281 280 280 279 278
277 281 286 290 293 295 297 299 300 300 299 299 300 301 302 303 303 303 303 302 300 299 297 296 294 292 291 291 291 290 290 289 288 287 286 285 284 282 281 281 280 279 278
280 285 288 291 294 296 298 299 299 298 298 299 300 302 303 304 305 305 304 303 301 299 298 297 297 296 296 295 295 294 293 292 291 290 288 286 285 283 282 280 279 278 277
284 287 289 292 294 296 298 298 298 298 299 300 302 303 304 306 306 306 304 303 302 301 300 300 300 299 299 298 297 296 295 294 292 291 288 286 284 282 280 278 276 274 273
287 289 291 293 295 297 298 298 298 299 300 302 303 305 306 307 306 304 304 304 304 304 303 303 302 302 301 300 299 298 296 295 292 290 287 285 281 277 274 272 270 270 270
289 290 293 296 298 298 298 299 299 300 302 304 305 306 307 306 305 305 306 306 306 306 305 305 304 303 302 301 300 298 296 294 291 289 287 284 281 276 271 269 268 267 269
290 293 296 298 298 299 299 300 302 303 304 305 306 307 306 306 306 307 308 309 309 309 308 307 306 305 304 303 301 299 297 295 293 291 288 284 280 275 271 269 268 270 272
293 296 298 299 300 301 302 304 305 306 306 307 307 307 307 308 308 309 310 311 311 311 310 309 308 308 307 305 303 302 302 301 299 297 293 289 284 279 274 272 272 274 277
296 298 299 301 303 304 305 306 307 307 308 308 308 308 309 310 310 311 312 313 313 312 310 310 310 311 311 309 309 310 311 310 308 303 300 297 291 285 281 279 280 282 284
298 300 302 303 304 306 307 307 307 308 308 308 309 310 311 311 312 313 314 314 313 312 311 312 314 314 315 314 315 316 318 319 314 309 311 307 300 296 292 290 289 290 291
300 302 303 305 306 306 306 307 308 308 308 309 310 311 312 313 313 314 315 315 313 313 313 314 316 317 318 318 321 323 324 324 320 316 321 316 308 304 299 295 293 293 296
301 303 305 305 306 306 307 308 308 309 310 311 312 313 314 314 315 316 316 314 313 313 313 316 318 320 322 323 327 329 329 328 326 327 329 323 313 308 303 299 297 296 297
302 304 304 305 306 307 307 308 309 310 311 312 314 315 316 316 317 316 315 314 314 313 314 316 318 321 323 326 330 334 335 333 330 328 330 328 319 313 307 304 302 300 298
303 304 304 305 306 307 308 309 310 311 313 314 315 316 317 317 316 315 315 316 315 313 314 316 319 322 325 328 332 335 336 336 336 331 331 332 328 324 315 311 309 305 301
303 304 305 306 307 309 310 310 311 313 314 316 317 318 318 317 316 315 316 317 316 315 316 317 319 321 324 328 331 335 337 340 342 339 336 336 333 331 324 316 318 312 301
Height
5800 5800 5799 5798 5797 5795 5793 5791 5789 5788 5786 5785 5782 5781 5779 5776 5773 5771 5768 5766 5764 5762 5760 5759 5757 5756 5754 5753 5751 5750 5749 5748 5748 5747 5747 5747 5746 5746 5746 5746 5746 5747 5747
5795 5795 5794 5793 5791 5790 5788 5786 5785 5783 5781 5778 5776 5774 5772 5769 5766 5763 5761 5758 5756 5754 5753 5751 5750 5748 5746 5744 5742 5740 5739 5737 5736 5736 5735 5735 5735 5734 5734 5734 5734 5734 5734
5789 5789 5788 5787 5785 5784 5783 5781 5779 5777 5775 5771 5768 5766 5763 5760 5757 5755 5753 5750 5748 5746 5744 5742 5740 5738 5736 5734 5732 5730 5728 5726 5724 5723 5723 5722 5721 5720 5720 5720 5719 5720 5720
5783 5783 5782 5781 5779 5778 5777 5775 5773 5771 5768 5764 5760 5757 5754 5751 5748 5746 5743 5741 5739 5736 5734 5731 5729 5727 5724 5722 5720 5717 5715 5713 5711 5709 5708 5707 5706 5705 5704 5704 5704 5704 5704
5777 5776 5775 5774 5773 5771 5770 5768 5766 5763 5760 5755 5752 5748 5745 5742 5739 5737 5735 5732 5729 5726 5723 5720 5717 5714 5711 5708 5706 5703 5701 5698 5695 5693 5691 5689 5688 5687 5686 5685 5685 5685 5685
5770 5770 5769 5767 5766 5765 5763 5760 5758 5755 5752 5748 5743 5740 5737 5734 5731 5729 5726 5722 5718 5715 5711 5707 5704 5700 5697 5693 5690 5687 5684 5681 5678 5676 5673 5671 5669 5668 5667 5666 5665 5665 5665
5764 5763 5762 5761 5759 5757 5755 5752 5749 5746 5743 5739 5736 5732 5729 5726 5723 5720 5716 5711 5707 5702 5697 5693 5689 5685 5681 5677 5673 5669 5666 5663 5659 5657 5654 5651 5650 5649 5647 5646 5645 5645 5645
5757 5756 5755 5753 5751 5749 5746 5743 5740 5736 5733 5730 5728 5725 5722 5719 5713 5708 5704 5699 5694 5689 5683 5678 5673 5668 5664 5659 5655 5651 5647 5643 5640 5637 5634 5631 5629 5627 5625 5624 5623 5622 5622
5749 5748 5747 5745 5743 5741 5738 5734 5730 5726 5723 5720 5717 5714 5711 5709 5707 5704 5695 5687 5681 5675 5669 5663 5657 5651 5646 5642 5637 5633 5629 5624 5620 5616 5612 5609 5606 5603 5601 5599 5597 5596 5595
5742 5740 5739 5736 5734 5731 5728 5724 5720 5716 5712 5709 5705 5701 5696 5692 5689 5689 5687 5678 5671 5664 5657 5650 5643 5637 5631 5625 5620 5615 5609 5603 5598 5592 5587 5582 5578 5575 5571 5569 5567 5565 5565
5733 5732 5730 5727 5725 5721 5717 5713 5709 5705 5701 5697 5693 5688 5683 5677 5671 5667 5667 5663 5656 5648 5641 5634 5627 5620 5613 5607 5601 5594 5588 5581 5574 5567 5560 5553 5548 5543 5538 5535 5531 5529 5528
5725 5723 5721 5718 5715 5711 5707 5702 5697 5693 5689 5684 5679 5674 5669 5664 5657 5651 5647 5644 5639 5634 5625 5617 5609 5601 5593 5585 5578 5570 5563 5555 5547 5539 5531 5523 5515 5509 5503 5499 5494 5491 5488
5716 5714 5711 5708 5704 5700 5696 5691 5686 5682 5677 5672 5666 5660 5653 5646 5639 5632 5626 5622 5618 5613 5606 5598 5587 5578 5568 5559 5549 5540 5531 5521 5511 5502 5493 5483 5475 5468 5463 5457 5452 5448 5446
5707 5705 5701 5698 5694 5690 5686 5681 5676 5670 5665 5659 5653 5646 5638 5630 5622 5613 5605 5599 5595 5592 5585 5577 5566 5552 5539 5527 5515 5503 5492 5480 5469 5458 5447 5437 5428 5422 5416 5412 5408 5405 5402
5698 5694 5691 5687 5684 5679 5675 5670 5664 5659 5652 5646 5638 5631 5622 5613 5604 5594 5585 5576 5568 5563 5561 5553 5540 5527 5511 5495 5479 5464 5449 5436 5423 5411 5399 5390 5382 5377 5373 5370 5368 5366 5365
5688 5685 5681 5677 5673 5668 5664 5658 5652 5646 5639 5631 5624 5615 5606 5596 5586 5576 5567 5557 5545 5536 5531 5527 5514 5498 5479 5460 5440 5421 5404 5388 5374 5363 5354 5349 5346 5344 5342 5341 5340 5339 5338
5679 5675 5671 5667 5662 5657 5652 5646 5639 5632 5624 5616 5607 5598 5589 5579 5569 5559 5548 5537 5525 5511 5501 5497 5483 5468 5447 5425 5404 5383 5364 5348 5335 5326 5319 5314 5313 5313 5314 5315 5316 5316 5315
5669 5665 5661 5656 5651 5645 5639 5633 5625 5617 5609 5601 5591 5582 5572 5562 5552 5541 5529 5516 5501 5485 5468 5457 5450 5432 5413 5390 5370 5354 5337 5320 5306 5297 5289 5285 5283 5284 5286 5289 5291 5292 5291
5660 5656 5651 5645 5639 5633 5626 5619 5611 5603 5594 5584 5574 5565 5555 5545 5534 5522 5508 5493 5476 5458 5437 5419 5407 5393 5378 5359 5343 5330 5315 5300 5286 5276 5269 5265 5263 5263 5265 5267 5269 5269 5269
5650 5645 5640 5634 5627 5620 5612 5604 5596 5587 5577 5567 5558 5548 5538 5526 5514 5501 5485 5468 5449 5430 5410 5391 5376 5362 5349 5336 5323 5312 5303 5289 5276 5265 5259 5255 5252 5251 5251 5251 5252 5252 5250
5640 5634 5628 5621 5614 5607 5598 5590 5582 5572 5562 5553 5543 5532 5520 5507 5492 5476 5459 5441 5421 5401 5384 5369 5356 5343 5332 5322 5312 5302 5292 5283 5272 5261 5257 5252 5246 5243 5241 5239 5237 5235 5232
5628 5622 5616 5609 5602 5593 5585 5575 5566 5558 5548 5537 5527 5515 5501 5486 5470 5453 5434 5414 5393 5374 5361 5351 5341 5331 5321 5312 5303 5293 5284 5276 5268 5261 5254 5249 5242 5239 5234 5230 5227 5223 5218
5618 5611 5605 5597 5589 5580 5571 5561 5552 5543 5532 5521 5509 5496 5481 5464 5446 5429 5411 5393 5375 5358 5345 5337 5329 5321 5313 5305 5296 5288 5279 5270 5262 5256 5251 5247 5239 5233 5227 5221 5216 5213 5209
5607 5600 5592 5584 5576 5567 5557 5548 5539 5528 5516 5503 5489 5474 5458 5441 5421 5403 5389 5375 5360 5346 5335 5327 5320 5312 5305 5298 5290 5282 5275 5269 5261 5251 5245 5241 5234 5227 5219 5212 5207 5205 5201
5595 5588 5580 5572 5563 5554 5545 5535 5524 5513 5500 5485 5469 5451 5433 5417 5400 5382 5368 5357 5347 5336 5327 5319 5312 5304 5298 5291 5284 5277 5271 5266 5259 5250 5241 5233 5226 5219 5212 5205 5200 5197 5195
5584 5576 5568 5559 5551 5542 5532 5521 5509 5497 5484 5469 5450 5430 5409 5391 5375 5361 5351 5343 5335 5328 5321 5314 5306 5299 5293 5286 5279 5272 5265 5260 5254 5247 5239 5230 5221 5213 5206 5198 5195 5192 5190